DW5513 Weather Reports


Display with metric or nautical units.
time (UTC)temp
F
wind
direction
speed
MPH
gust
MPH
rain 1hr
in
rain 24hr
in
rain mn
in
humidity
%
barometer
mb
20260903064501 64 56 0.0 0.0 0.00 0.21 0.00 98 1013.6
20260903063001 64 56 0.0 0.0 0.00 0.21 0.00 98 1013.5
20260903061605 64 71 0.0 1.0 0.00 0.21 0.00 98 1013.4
20260903060105 64 65 0.0 1.0 0.00 0.21 0.00 98 1013.4
20260903054559 64 65 0.0 1.0 0.00 0.21 0.00 98 1013.6
20260903053100 64 337 0.0 4.0 0.00 0.21 0.00 98 1013.5
20260903051612 64 97 0.0 2.0 0.00 0.21 0.00 98 1013.7
20260903050059 64 56 0.0 0.0 0.00 0.21 0.00 98 1013.8
20260903044600 64 274 0.0 1.0 0.00 0.21 0.00 97 1014.0
20260903043147 64 274 0.0 1.0 0.01 0.21 0.00 97 1014.2
20260903041553 64 197 0.0 2.0 0.04 0.21 0.00 97 1013.6
20260903040051 64 215 0.0 5.0 0.09 0.21 0.00 97 1013.7
20260903034549 64 169 0.0 2.0 0.11 0.21 0.21 97 1013.9
20260903033049 64 178 0.0 0.0 0.13 0.20 0.20 97 1014.1
20260903031546 64 360 0.0 2.0 0.11 0.17 0.17 97 1014.4
20260903030044 64 50 0.0 0.0 0.07 0.12 0.12 96 1015.2
20260903024546 64 244 0.0 1.0 0.06 0.10 0.10 96 1015.3
20260903023042 64 238 0.0 1.0 0.06 0.07 0.07 96 1015.3
20260903021543 64 225 0.0 1.0 0.05 0.06 0.06 95 1015.1
20260903020042 64 193 0.0 2.0 0.04 0.05 0.05 94 1015.2
20260903014547 65 167 0.0 1.0 0.02 0.03 0.03 93 1015.7
20260903013050 65 285 0.0 0.0 0.00 0.01 0.01 92 1016.5
20260903011540 66 285 0.0 1.0 0.00 0.01 0.01 91 1016.6
20260903010041 65 167 0.0 2.0 0.00 0.01 0.01 91 1016.2